Regional Weather Roundup
Issued by NWS

Current Version | Previous Version | Text Only | Print | Product List | Glossary On
Versions: 1 2 3 4 5 6 7 8 9 10 11 12 13 14 15 16 17 18 19 20 21 22 23 24 25 26 27 28 29 30 31 32 33 34 35 36 37 38 39 40 41 42 43 44 45 46 47 48 49 50
000
ASUS45 KSLC 281210
RWRUT

UTAH REGIONAL WEATHER ROUNDUP
NATIONAL WEATHER SERVICE SALT LAKE CITY UT
600 AM MDT SAT MAY 28 2016

UTZ001>011-023>025-281300-

NORTHERN UTAH

CITY           SKY/WX    TMP DP  RH WIND       PRES   REMARKS
BRIGHAM CITY     N/A     48  43  82 NW5       30.01R
HILL AFB       PTCLDY    48  41  75 E10       30.01R
LOGAN          FOG       42  42 100 CALM      30.03R VSB 1/2
OGDEN          PTCLDY    48  42  80 CALM      30.00R
PROVO AIRPORT  PTCLDY    46  37  71 S6        30.01R
SALT LAKE CITY PTCLDY    54  44  69 SE6       29.99S
VERNAL         CLEAR     42  34  73 W7        30.04R
WENDOVER       CLEAR     50  36  57 W5        30.01R
HEBER CITY     PTCLDY    39  37  93 CALM      30.06R
WEST JORDAN    CLEAR     48  43  81 CALM      30.01R

$$

UTZ012>022-026-027-281300-

SOUTHERN/CENTRAL UTAH

CITY           SKY/WX    TMP DP  RH WIND       PRES   REMARKS
BLANDING       CLEAR     43  32  65 N10       30.13R
BRYCE CANYON   MOCLDY    33  28  81 W6        30.13R WCI  28
CEDAR CITY     PTCLDY    44  33  65 E3        30.00R
DELTA          MOCLDY    50  37  62 CALM      29.99R
HANKSVILLE     CLEAR     43  32  65 NW3       30.01R
MILFORD        PTCLDY    42  33  70 S5        29.99R
MOAB/CYNLANDS  CLEAR     52  39  61 S3        29.99R
PRICE          CLOUDY    43  30  60 N5        30.04R
ST GEORGE      MOSUNNY   61  27  27 CALM      29.91R

$$

REGIONAL REPORTS     COLORADO/ARIZONA

CITY           SKY/WX    TMP DP  RH WIND       PRES   REMARKS
CRAIG, CO      CLOUDY    34  32  92 SW3       30.08R
GRAND JUNCTION CLEAR     44  40  85 E5        30.03R
RIFLE          CLEAR     38  32  79 CALM      30.09R
MONTROSE       CLEAR     40  32  73 S5        30.10R
CORTEZ         CLEAR     35  29  78 CALM      30.08R
PAGE, AZ       CLEAR     56  32  40 CALM      29.96R
GRAND CANYON   CLEAR     31  23  72 CALM      30.09R
KINGMAN        CLEAR     63  28  26 SE12      29.90R
FLAGSTAFF      CLEAR     32  26  78 CALM      30.09S

$$

REGIONAL REPORTS    NEVADA/IDAHO/WYOMING

CITY           SKY/WX    TMP DP  RH WIND       PRES   REMARKS
LAS VEGAS, NV  PTCLDY    71  33  24 NW3       29.77R
ELY            MOCLDY    36  30  79 S8        30.06R WCI  30
ELKO           PTCLDY    41  35  79 CALM      30.04R
POCATELLO, ID  CLEAR     39  29  67 SW8       30.03R WCI  33
BURLEY         CLEAR     38  30  73 SW8       30.02R WCI  32
EVANSTON, WY   CLOUDY    39  33  79 SW12      30.07R WCI  32
ROCK SPRINGS   CLEAR     41  34  76 SW12      30.05R
KEMMERER         N/A     36  32  87 CALM      30.08R

$$



USA.gov is the U.S. government's official web portal to all federal, state and local government web resources and services.